Atlantic City, NJ

4:06 PM EST on December 16, 2017 (GMT -0500)
Atlantic City International

Weather History for KACY - December, 2013

Change the Weather History Date:

Tuesday, December 17, 2013

  Actual Average Record
Temperature  
Mean Temperature 36 °F 37 °F  
Max Temperature 45 °F 45 °F 65 °F (1984)
Min Temperature 27 °F 28 °F 6 °F (1876)
Degree Days  
Heating Degree Days 29 28  
Month to date heating degree days 466 441  
Since 1 July heating degree days 1469 1348  
Cooling Degree Days 0 0  
Month to date cooling degree days 0 0  
Year to date cooling degree days 1088 1055  
Moisture  
Dew Point 29 °F    
Average Humidity 73    
Maximum Humidity 100    
Minimum Humidity 46    
Precipitation  
Precipitation 0.10 in 0.12 in 1.36 in (1890)
Month to date precipitation 4.27 2.09  
Year to date precipitation 44.33 40.15  
Snow  
Snow 0.20 in 0.10 in 7.20 in (1932)
Month to date snowfall 3.3 1.8  
Since 1 July snowfall 3.3 2.0  
Snow Depth T in    
Sea Level Pressure  
Sea Level Pressure 30.04 in    
Wind  
Wind Speed 6 mph (North)    
Max Wind Speed 15 mph    
Max Gust Speed 19 mph    
Visibility 7 miles    
Events Rain , Snow    
T = Trace of Precipitation, MM = Missing Value Source: NWS Daily Summary

Daily Weather History Graph

Daily Weather History Graph

Search for Another Location

Airport or City:

Trip Planner

Search our weather history database for the weather conditions in past years. The results will help you decide how hot, cold, wet, or windy it might be!

Date:

Astronomy

Dec. 17, 2013 Rise Set
Actual Time 7:12 AM EST 4:36 PM EST
Civil Twilight 6:42 AM EST 5:06 PM EST
Nautical Twilight 6:08 AM EST 5:40 PM EST
Astronomical Twilight 5:36 AM EST 6:13 PM EST
Moon 5:13 PM EST (12/17) 7:07 AM EST (12/17)
Length of Visible Light 10h 24m
Length of Day
9h 23m
Full, 100% of the Moon is Illuminated
Dec 17
Full
Dec 25
Last Quarter
Jan 1
New
Jan 7
First Quarter
Jan 15
Full

Hourly Weather History & Observations

Time (EST) Temp. Windchill Dew Point Humidity Pressure Visibility Wind Dir Wind Speed Gust Speed Precip Events Conditions
12:54 AM 28.0 °F 24.2 °F 12.0 °F 51% 30.22 in 10.0 mi NE 3.5 mph - N/A   Overcast
1:54 AM 27.0 °F 20.5 °F 10.0 °F 49% 30.21 in 10.0 mi ENE 5.8 mph - N/A   Overcast
2:54 AM 28.0 °F 22.8 °F 10.9 °F 49% 30.21 in 10.0 mi ENE 4.6 mph - N/A   Overcast
3:54 AM 28.0 °F 22.8 °F 12.0 °F 51% 30.19 in 10.0 mi ENE 4.6 mph - N/A   Overcast
4:54 AM 28.0 °F 24.2 °F 14.0 °F 56% 30.16 in 10.0 mi ENE 3.5 mph - N/A   Overcast
5:54 AM 28.9 °F 25.2 °F 16.0 °F 58% 30.16 in 10.0 mi NE 3.5 mph - N/A   Overcast
6:35 AM 28.9 °F 25.2 °F 18.0 °F 64% 30.16 in 9.0 mi NNE 3.5 mph - 0.00 in Snow Light Snow
6:54 AM 28.9 °F 25.2 °F 18.0 °F 64% 30.15 in 10.0 mi NNE 3.5 mph - 0.00 in   Overcast
7:54 AM 30.9 °F 25.2 °F 21.0 °F 67% 30.12 in 10.0 mi ENE 5.8 mph - N/A   Overcast
8:54 AM 37.9 °F 33.5 °F 28.0 °F 68% 30.09 in 10.0 mi East 5.8 mph - N/A   Overcast
9:13 AM 41.0 °F 36.4 °F 32.0 °F 70% 30.07 in 10.0 mi East 6.9 mph - N/A   Mostly Cloudy
9:29 AM 42.1 °F 37.1 °F 33.1 °F 70% 30.06 in 10.0 mi East 8.1 mph - N/A   Mostly Cloudy
9:38 AM 42.1 °F 37.1 °F 33.1 °F 70% 30.06 in 10.0 mi ESE 8.1 mph - N/A   Mostly Cloudy
9:54 AM 43.0 °F 38.8 °F 35.1 °F 74% 30.06 in 10.0 mi ESE 6.9 mph - N/A   Overcast
10:28 AM 43.0 °F 40.3 °F 36.0 °F 76% 30.05 in 10.0 mi NNE 4.6 mph - 0.00 in Rain Light Rain
10:44 AM 42.1 °F 39.2 °F 37.0 °F 82% 30.04 in 5.0 mi ENE 4.6 mph - 0.01 in Rain Light Rain
10:54 AM 42.1 °F 39.2 °F 37.9 °F 85% 30.03 in 6.0 mi East 4.6 mph - 0.03 in Rain Light Rain
11:54 AM 44.1 °F - 44.1 °F 100% 29.97 in 8.0 mi Calm Calm - 0.02 in   Overcast
12:54 PM 45.0 °F 42.6 °F 42.1 °F 90% 29.95 in 5.0 mi WSW 4.6 mph - 0.00 in Rain Light Rain
1:54 PM 42.1 °F 37.1 °F 39.9 °F 92% 29.94 in 8.0 mi WSW 8.1 mph - 0.00 in Rain Light Rain
2:54 PM 39.9 °F 35.8 °F 39.0 °F 97% 29.94 in 5.0 mi West 5.8 mph - 0.00 in Rain Light Rain
3:45 PM 37.9 °F 33.5 °F 37.9 °F 100% 29.95 in 5.0 mi WNW 5.8 mph - 0.05 in Rain Light Rain
3:54 PM 37.9 °F 33.5 °F 37.9 °F 100% 29.95 in 5.0 mi WNW 5.8 mph - 0.05 in Rain Light Rain
4:40 PM 37.9 °F 30.0 °F 36.0 °F 93% 29.96 in 6.0 mi WNW 12.7 mph - 0.00 in   Overcast
4:54 PM 37.0 °F 31.0 °F 36.0 °F 96% 29.96 in 7.0 mi WNW 8.1 mph - 0.00 in   Overcast
5:54 PM 35.1 °F 31.0 °F 34.0 °F 96% 29.95 in 4.0 mi NNW 4.6 mph - N/A   Mostly Cloudy
6:54 PM 34.0 °F 28.0 °F 33.1 °F 96% 29.97 in 4.0 mi NW 6.9 mph - N/A   Mostly Cloudy
7:01 PM 34.0 °F 28.8 °F 33.1 °F 96% 29.97 in 4.0 mi NW 5.8 mph - N/A   Mostly Cloudy
7:14 PM 33.1 °F 24.9 °F 32.0 °F 96% 29.97 in 4.0 mi NNW 10.4 mph - N/A   Overcast
7:54 PM 33.1 °F 25.5 °F 32.0 °F 96% 29.97 in 4.0 mi NNW 9.2 mph - N/A   Overcast
8:26 PM 32.0 °F 23.6 °F 30.9 °F 96% 29.97 in 5.0 mi NNW 10.4 mph - N/A   Overcast
8:54 PM 32.0 °F 25.6 °F 30.9 °F 96% 29.98 in 5.0 mi NNW 6.9 mph - N/A   Overcast
9:54 PM 30.9 °F 25.2 °F 28.9 °F 92% 29.96 in 5.0 mi North 5.8 mph - N/A   Overcast
10:28 PM 30.9 °F 23.5 °F 28.9 °F 92% 29.96 in 6.0 mi NW 8.1 mph - N/A   Overcast
10:54 PM 30.0 °F 22.4 °F 28.0 °F 92% 29.94 in 6.0 mi NNW 8.1 mph - N/A   Overcast
11:54 PM 28.9 °F 21.1 °F 27.0 °F 92% 29.93 in 7.0 mi NNW 8.1 mph - N/A   Overcast